This is the latest recevied weather packets stored in our database for station/object AD0YN. If no packets are shown the sender has not sent any weather packets the latest 10 day(s).
| Time | Temp. | Humidity | Pressure | Rain* | Wind** | Luminosity | Snow |
|---|---|---|---|---|---|---|---|
| 1778125943 | 6.67° C | 70% | 1017.3 hPa | 0 mm | - | 0 W/m² | - |
| 1778125640 | 6.67° C | 72% | 1017.1 hPa | 0 mm | - | 0 W/m² | - |
| 1778125337 | 6.67° C | 72% | 1017.1 hPa | 0 mm | - | 0 W/m² | - |
| 1778125036 | 6.67° C | 71% | 1017.2 hPa | 0 mm | - | 0 W/m² | - |
| 1778124733 | 6.67° C | 70% | 1017.2 hPa | 0 mm | - | 0 W/m² | - |
| 1778124430 | 6.67° C | 69% | 1017.3 hPa | 0 mm | - | 0 W/m² | - |
| 1778124126 | 6.67° C | 70% | 1017.1 hPa | 0 mm | - | 0 W/m² | - |
| 1778123823 | 6.67° C | 69% | 1017.2 hPa | 0 mm | - | 0 W/m² | - |
| 1778123519 | 6.67° C | 68% | 1017.1 hPa | 0 mm | - | 0 W/m² | - |
| 1778123216 | 6.67° C | 70% | 1017.2 hPa | 0 mm | - | 0 W/m² | - |
| 1778122914 | 6.67° C | 66% | 1017.2 hPa | 0 mm | - | 0 W/m² | - |
| 1778122611 | 7.22° C | 65% | 1017.4 hPa | 0 mm | - | 0 W/m² | - |
| 1778122308 | 7.22° C | 68% | 1017.1 hPa | 0 mm | - | 0 W/m² | - |
| 1778122006 | 7.22° C | 66% | 1017.1 hPa | 0 mm | - | 0 W/m² | - |
| 1778121703 | 7.78° C | 65% | 1017.3 hPa | 0 mm | - | 0 W/m² | - |
| 1778121398 | 7.78° C | 64% | 1017.1 hPa | 0 mm | - | 0 W/m² | - |
| 1778121096 | 7.78° C | 60% | 1016.8 hPa | 0 mm | - | 0 W/m² | - |
| 1778120793 | 8.33° C | 59% | 1016.9 hPa | 0 mm | - | 0 W/m² | - |
| 1778120488 | 8.33° C | 60% | 1016.9 hPa | 0 mm | - | 0 W/m² | - |
| 1778120185 | 8.33° C | 60% | 1016.9 hPa | 0 mm | - | 0 W/m² | - |
| 1778119880 | 8.89° C | 57% | 1016.8 hPa | 0 mm | - | 0 W/m² | - |
| 1778119579 | 8.33° C | 57% | 1017 hPa | 0 mm | - | 0 W/m² | - |
| 1778119275 | 8.33° C | 56% | 1016.7 hPa | 0 mm | - | 0 W/m² | - |
| 1778118974 | 8.33° C | 54% | 1016.9 hPa | 0 mm | - | 0 W/m² | - |
| 1778118671 | 8.89° C | 55% | 1016.7 hPa | 0 mm | - | 0 W/m² | - |
* Rain latest hour (hover to see other rain measurements)
** Current wind speed in m/s (hover to see current wind gust speed)